Weather History for Annette Island, AK

Change the Weather History Date:

Wednesday, February 6, 2013

  Actual Average Record
Temperature  
Mean Temperature 41 °F 38 °F  
Max Temperature 44 °F 43 °F 52 °F (1998)
Min Temperature 37 °F 33 °F 15 °F (1989)
Degree Days  
Heating Degree Days 24 27  
Month to date heating degree days 144 165  
Since 1 July heating degree days 3967 3944  
Cooling Degree Days 0    
Month to date cooling degree days 0  
Year to date cooling degree days 0  
Moisture  
Dew Point 35 °F    
Average Humidity 0    
Maximum Humidity 0    
Minimum Humidity 0    
Precipitation  
Precipitation 0.11 in 0.29 in 2.69 in (1993)
Month to date precipitation 2.30 1.72  
Year to date precipitation 10.50 12.45  
Snow  
Snow 0.00 in 0.20 in 7.50 in (1969)
Month to date snowfall 0.0 1.5  
Since 1 July snowfall 11.9 20.8  
Snow Depth 0.00 in    
Sea Level Pressure  
Sea Level Pressure 29.61 in    
Wind  
Wind Speed 6 mph (ESE)    
Max Wind Speed 14 mph    
Max Gust Speed 20 mph    
Visibility 10 miles    
Events Rain    
T = Trace of Precipitation, MM = Missing Value Source: NWS Daily Summary

Daily Weather History Graph

Daily Weather History Graph

Search for Another Location

Airport:

Trip Planner

Search our weather history database for the weather conditions in past years. The results will help you decide how hot, cold, wet, or windy it might be!

Date:

Astronomy

Feb. 06, 2013 Rise Set
Actual Time 7:26 AM AKST 4:34 PM AKST
Civil Twilight 6:47 AM AKST 5:13 PM AKST
Nautical Twilight 6:04 AM AKST 5:57 PM AKST
Astronomical Twilight 5:22 AM AKST 6:39 PM AKST
Moon 4:38 AM AKST (2/6) 12:40 PM AKST (2/6)
Length of Visible Light 10h 26m
Length of Day
9h 08m
Waning Crescent, 15% of the Moon is Illuminated
Feb 6
Waning Crescent
Feb 9
New
Feb 17
First Quarter
Feb 25
Full
Mar 4
Last Quarter

Hourly Weather History & Observations

Time (AKST) Temp. Windchill Dew Point Humidity Pressure Visibility Wind Dir Wind Speed Gust Speed Precip Events Conditions
12:53 AM 39.9 °F 37.8 °F 35.1 °F 83% 29.46 in 10.0 mi NNE 3.5 mph - N/A   Overcast
1:53 AM 39.9 °F - 33.1 °F 77% 29.47 in 10.0 mi Calm Calm - N/A   Mostly Cloudy
3:53 AM 41.0 °F - 34.0 °F 76% 29.49 in 10.0 mi Calm Calm - N/A   Overcast
4:53 AM 41.0 °F 35.8 °F 35.1 °F 79% 29.52 in 10.0 mi SE 8.1 mph - 0.00 in Rain Light Rain
5:51 AM 39.2 °F 32.0 °F 35.6 °F 87% 29.53 in 10.0 mi SE 11.5 mph 18.4 mph 0.00 in Rain Light Rain
5:53 AM 39.9 °F 33.4 °F 35.1 °F 83% 29.54 in 10.0 mi SE 10.4 mph - 0.00 in Rain Light Rain
6:39 AM 39.2 °F 33.6 °F 35.6 °F 87% 29.54 in 10.0 mi ESE 8.1 mph - 0.02 in Rain Light Rain
6:53 AM 39.0 °F 33.4 °F 36.0 °F 89% 29.55 in 7.0 mi ESE 8.1 mph - 0.03 in Rain Light Rain
7:03 AM 39.2 °F 34.2 °F 35.6 °F 87% 29.55 in 9.0 mi ESE 6.9 mph - 0.01 in Rain Light Rain
7:53 AM 37.9 °F 30.0 °F 35.1 °F 89% 29.58 in 8.0 mi ESE 12.7 mph 19.6 mph 0.03 in Rain Light Rain
8:06 AM 37.4 °F 31.4 °F 35.6 °F 93% 29.57 in 8.0 mi ESE 8.1 mph - 0.03 in Rain Rain
8:53 AM 39.0 °F 34.0 °F 36.0 °F 89% 29.59 in 10.0 mi ESE 6.9 mph - 0.05 in Rain Light Rain
9:43 AM 41.0 °F 35.2 °F 35.6 °F 81% 29.59 in 10.0 mi ESE 9.2 mph 18.4 mph 0.00 in   Mostly Cloudy
9:53 AM 41.0 °F 34.3 °F 36.0 °F 82% 29.60 in 10.0 mi ESE 11.5 mph 18.4 mph 0.00 in   Mostly Cloudy
10:53 AM 43.0 °F 38.2 °F 35.1 °F 74% 29.61 in 10.0 mi ESE 8.1 mph - N/A   Mostly Cloudy
11:53 AM 42.1 °F 38.4 °F 35.1 °F 76% 29.61 in 10.0 mi Variable 5.8 mph - 0.00 in   Overcast
12:53 PM 44.1 °F 40.8 °F 34.0 °F 68% 29.60 in 10.0 mi Variable 5.8 mph - N/A   Overcast
1:53 PM 44.1 °F 40.1 °F 34.0 °F 68% 29.62 in 10.0 mi East 6.9 mph - 0.00 in Rain Light Rain
2:53 PM 44.1 °F 42.5 °F 34.0 °F 68% 29.63 in 10.0 mi Variable 3.5 mph - 0.00 in   Overcast
3:39 PM 42.8 °F 38.6 °F 35.6 °F 76% 29.64 in 10.0 mi SE 6.9 mph - 0.00 in Rain Light Rain
3:53 PM 41.0 °F 36.4 °F 37.0 °F 86% 29.65 in 10.0 mi ESE 6.9 mph - 0.00 in Rain Light Rain
4:53 PM 39.9 °F 35.8 °F 37.9 °F 93% 29.67 in 10.0 mi ESE 5.8 mph - 0.03 in   Overcast
5:30 PM 39.2 °F 35.0 °F 37.4 °F 93% 29.67 in 10.0 mi ESE 5.8 mph - N/A   Mostly Cloudy
5:53 PM 39.9 °F 36.7 °F 36.0 °F 86% 29.68 in 10.0 mi ESE 4.6 mph - N/A   Mostly Cloudy
6:53 PM 37.0 °F - 36.0 °F 96% 29.69 in 10.0 mi Calm Calm - N/A   Clear
7:53 PM 34.0 °F - 33.1 °F 96% 29.70 in 10.0 mi Calm Calm - N/A   Clear
8:53 PM 34.0 °F 31.0 °F 33.1 °F 96% 29.71 in 10.0 mi North 3.5 mph - N/A   Clear
9:53 PM 33.1 °F - 32.0 °F 96% 29.72 in 10.0 mi Calm Calm - N/A   Clear
10:53 PM 36.0 °F 32.1 °F 35.1 °F 97% 29.73 in 10.0 mi NNW 4.6 mph - N/A   Clear
11:53 PM 36.0 °F 32.1 °F 35.1 °F 97% 29.74 in 10.0 mi NNW 4.6 mph - N/A   Clear